Location: Newark
(25.6108°S, 54.5803°W)
Time: 07:55:40
(UTC+00:00)

Courier 1B - Pass Details

Date: 04 November 2020
Orbit: 962 x 1209 km, 28.3° (Epoch: 02 December)

Event Time Altitude Azimuth Distance (km) Brightness Sun altitude
Rises 00:29:06 0° 277° (W) 3,821 11.2 -31.2°
Reaches altitude 10° 00:31:45 10° 276° (W) 2,904 10.4 -31.7°
Maximum altitude 00:38:57 79° 189° (S) 1,148 7.7 -32.9°
Enters shadow 00:39:00 79° 184° (S) 1,149 7.7 -32.9°
Drops below altitude 10° 00:46:38 10° 102° (ESE) 3,088 - -34.2°
Sets 00:49:32 0° 100° (E) 4,076 - -34.7°
